Regional Weather Roundup
Issued by NWS

Home | Current Version | Previous Version | Text Only | Print | Product List | Glossary Off
Versions: 1 2 3 4 5 6 7 8 9 10 11 12 13 14 15 16 17 18 19 20 21 22 23 24 25 26 27

000
ASUS45 KBOU 191207
RWRCO

WEATHER ROUNDUP FOR COLORADO
NATIONAL WEATHER SERVICE DENVER/BOULDER CO
600 AM MDT SAT AUG 19 2017

NOTE: "FAIR" INDICATES FEW OR NO CLOUDS BELOW 12000 FEET WITH NO
SIGNIFICANT WEATHER AND/OR OBSTRUCTIONS TO VISIBILITY.

COZ001>005-013-030-031-191300-
...NORTHWEST COLORADO...

CITY           SKY/WX    TMP DP  RH WIND       PRES   REMARKS
CRAIG          FAIR      41  35  79 CALM      30.23R
HAYDEN         FAIR      50  35  56 E9        30.26R
MEEKER         FAIR      50  37  61 NW3       30.24R
RABBIT EARS PA FAIR      52  30  43 W3        30.51S
STEAMBOAT SPGS FAIR      45  37  72 CALM      30.27S
WALDEN         FAIR      37  30  75 E3        30.36R
$$

COZ006>008-011-191300-
...WEST CENTRAL VALLEYS...

CITY           SKY/WX    TMP DP  RH WIND       PRES   REMARKS
GRAND JUNCTION FAIR      64  35  34 SE12      30.10S
MONTROSE       FAIR      55  40  56 SE10      30.21R
EAGLE          FAIR      45  32  60 E6        30.32R
RIFLE          FAIR      52  32  46 CALM      30.19R
DELTA          FAIR      58  35  42 NE7       30.17R
NUCLA          FAIR      55  32  41 E3        30.23S
$$

COZ017>023-064>068-191300-
...SOUTHWEST COLORADO...

CITY           SKY/WX    TMP DP  RH WIND       PRES   REMARKS
DURANGO        FAIR      49  37  63 E5        30.27R
CORTEZ         FAIR      49  38  65 CALM      30.20R
PAGOSA SPRINGS FAIR      48  33  57 CALM      30.36R
TELLURIDE      FAIR      52  33  48 SE7       30.45F
WOLF CREEK PAS NOT AVBL
$$

COZ009-010-012-014-032>034-037-058>063-191300-
...CENTRAL COLORADO...

CITY           SKY/WX    TMP DP  RH WIND       PRES   REMARKS
ASPEN          FAIR      48  34  58 S6        30.33S
BUENA VISTA    FAIR      48  35  59 W6        30.38R
COPPER MTN     FAIR      54  25  32 SW8       30.64S
BERTHOUD PASS  FAIR      43  37  81 MISG      30.65S
COTTONWOOD PAS FAIR      59  27  29 SW5       30.49R
GUNNISON       FAIR      42  34  73 CALM      30.40R
KREMMLING      FAIR      43  37  81 CALM      30.36R
LEADVILLE      FAIR      37  29  72 NE6       30.49R
MONARCH PASS   FAIR      46  30  53 W15       30.74S
SALIDA         FAIR      54  38  53 NW6       30.42S
SUNLIGHT       FAIR      48  27  43 SW8       30.56S
WILKERSON PASS FAIR      50  28  43 W5        30.61S
$$

COZ069>075-191300-
...SAN LUIS VALLEY/SANGRE DE CRISTO MOUNTAINS...

CITY           SKY/WX    TMP DP  RH WIND       PRES   REMARKS
ALAMOSA        FAIR      46  39  76 SE5       30.33S
DEL NORTE      FAIR      52  35  52 W15       30.37S
LA VETA PASS   NOT AVBL
SAGUACHE       FAIR      48  36  61 N8        30.38S
$$

COZ035-036-038>040-191300-
...NORTHERN COLORADO FRONT RANGE...

CITY           SKY/WX    TMP DP  RH WIND       PRES   REMARKS
DENVER INTL AP FAIR      62  46  55 W12       30.11R
DMNS CITY PARK   N/A     63  44  49 E7        30.11S
AURORA         CLEAR     64  45  51 SW10      30.13R
FRONT RANGE AP FAIR      64  46  52 W9        30.12R
ERIE MUNI ARPT FAIR      52  46  79 CALM      30.16R
BOULDER MUN AP FAIR      61  46  59 N5        30.10R
CENTENNIAL     FAIR      60  46  59 CALM      30.15R
BROOMFIELD     PTCLDY    66  39  37 CALM      30.14
FORT COLLINS   FAIR      57  49  74 CALM      30.10R
LONGMONT       FAIR      55  47  73 CALM      30.12R
$$

COZ041-046-047-076>085-087-088-191300-
...PIKES PEAK/PALMER DIVIDE AND SOUTHERN FOOTHILLS...

CITY           SKY/WX    TMP DP  RH WIND       PRES   REMARKS
COLO. SPRINGS  MOCLDY    60  52  74 N6        30.20S
A. F. ACADEMY  FAIR      50  46  86 N9        30.21F
SCHRIEVER AFB  MOCLDY    60  50  71 MISG      30.20S
CHEYENNE MTN   MOCLDY    66  40  38 CALM      30.19S
ELLICOTT       NOT AVBL
FALCON         FAIR      55  49  80 NW7       30.24F
FORT CARSON    CLOUDY    59  49  70 NW7       30.17S
LIMON          FAIR      50  50 100 CALM      30.14F
MONUMENT HILL  FAIR      55  45  67 SW12      30.25S
CANON CITY     CLEAR     68  45  42 W15       30.15R
WALSENBURG     FAIR      66  43  42 SW8       30.19S
TRINIDAD       FAIR      69  48  47 W10G18    30.17R
$$

COZ042>045-048>051-090-091-191300-
...NORTHEAST COLORADO...

CITY           SKY/WX    TMP DP  RH WIND       PRES   REMARKS
GREELEY ARPT   FAIR      53  50  89 NW6       30.08
AKRON          FAIR      64  54  69 SW10      30.07S
BURLINGTON     FAIR      62  58  86 S13       30.07F
WRAY           NOT AVBL
YUMA           FAIR      59  46  63 S10       30.04S
STERLING       FAIR      55  54  94 SW5       30.03S
HOLYOKE        FAIR      59  54  82 S3        30.04R
FORT MORGAN    FAIR      60  52  75 SW5       30.07S
$$

COZ086-089-092>099-191300-
...SOUTHEAST COLORADO...

CITY           SKY/WX    TMP DP  RH WIND       PRES   REMARKS
PUEBLO         FAIR      58  53  84 SW3       30.10S
LA JUNTA       FAIR      60  58  92 W3        30.07S
LAMAR          FAIR      61  59  93 E6        30.03F
SPRINGFIELD      N/A     60  60 100 SW8       30.10R
$$




USA.gov is the U.S. government's official web portal to all federal, state and local government web resources and services.